timestamp,surface_pressure_avg,surface_temp_avg,battery_voltage,lat,long
2017-09-07 00:00:00+00:00,364.128,15.28,12.65,47.84626,-54.09684
2017-09-07 00:10:00+00:00,361.968,15.29,12.65,47.84626,-54.09684
2017-09-07 00:20:00+00:00,364.3679,15.29,12.73,47.84626,-54.09684
2017-09-07 00:30:00+00:00,364.718,15.3,12.73,47.84626,-54.09684
2017-09-07 00:40:00+00:00,362.6912,15.3,12.73,47.84626,-54.09684
2017-09-07 00:50:00+00:00,360.0529,15.3,12.73,47.84626,-54.09684
2017-09-07 01:00:00+00:00,355.8863,15.3,12.65,47.84626,-54.09684
2017-09-07 01:10:00+00:00,348.723,15.22,12.65,47.84626,-54.09684
2017-09-07 01:20:00+00:00,346.5096,15.23,12.73,47.84626,-54.09684
2017-09-07 01:30:00+00:00,342.398,15.2,12.65,47.84626,-54.09684
2017-09-07 01:40:00+00:00,334.5013,15.2,12.73,47.84626,-54.09684
2017-09-07 01:50:00+00:00,326.128,15.2,12.73,47.84626,-54.09684
2017-09-07 02:00:00+00:00,320.863,15.2,12.65,47.84626,-54.09684
2017-09-07 02:10:00+00:00,310.1014,15.2,12.65,47.84626,-54.09684
2017-09-07 02:20:00+00:00,300.5847,15.2,12.65,47.84626,-54.09684
2017-09-07 02:30:00+00:00,296.2114,15.2,12.65,47.84626,-54.09684
2017-09-07 02:40:00+00:00,287.828,15.2,12.65,47.84626,-54.09684
2017-09-07 02:50:00+00:00,274.1814,15.27,12.65,47.84626,-54.09684
2017-09-07 03:00:00+00:00,263.0115,15.29,12.65,47.84626,-54.09684
2017-09-07 03:10:00+00:00,258.1731,15.27,12.65,47.84626,-54.09684
2017-09-07 03:20:00+00:00,250.2614,15.3,12.65,47.84626,-54.09684
2017-09-07 03:30:00+00:00,241.0697,15.3,12.65,47.84626,-54.09684
2017-09-07 03:40:00+00:00,234.1314,15.3,12.65,47.84626,-54.09684
2017-09-07 03:50:00+00:00,227.4231,15.3,12.65,47.84626,-54.09684
2017-09-07 04:00:00+00:00,216.5331,15.3,12.65,47.84626,-54.09684
2017-09-07 04:10:00+00:00,207.9898,15.3,12.65,47.84626,-54.09684
2017-09-07 04:20:00+00:00,201.2781,15.32,12.65,47.84626,-54.09684
2017-09-07 04:30:00+00:00,194.5015,15.39,12.65,47.84626,-54.09684
2017-09-07 04:40:00+00:00,187.9381,15.4,12.65,47.84626,-54.09684
2017-09-07 04:50:00+00:00,183.5415,15.46,12.65,47.84626,-54.09684
2017-09-07 05:00:00+00:00,182.0831,15.5,12.65,47.84626,-54.09684
2017-09-07 05:10:00+00:00,181.0581,15.52,12.65,47.84626,-54.09684
2017-09-07 05:20:00+00:00,179.8431,15.59,12.65,47.84626,-54.09684
2017-09-07 05:30:00+00:00,176.8448,15.6,12.65,47.84626,-54.09684
2017-09-07 05:40:00+00:00,175.0282,15.6,12.65,47.84626,-54.09684
2017-09-07 05:50:00+00:00,174.5581,15.6,12.65,47.84626,-54.09684
2017-09-07 06:00:00+00:00,173.7465,15.6,12.65,47.84626,-54.09684
2017-09-07 06:10:00+00:00,174.7315,15.6,12.65,47.84626,-54.09684
2017-09-07 06:20:00+00:00,178.4182,15.6,12.65,47.84626,-54.09684
2017-09-07 06:30:00+00:00,182.8315,15.6,12.65,47.84626,-54.09684
2017-09-07 06:40:00+00:00,185.9431,15.6,12.65,47.84626,-54.09684
2017-09-07 06:50:00+00:00,189.8448,15.6,12.65,47.84626,-54.09684
2017-09-07 07:00:00+00:00,194.5698,15.6,12.65,47.84626,-54.09684
2017-09-07 07:10:00+00:00,199.6881,15.6,12.65,47.84626,-54.09684
2017-09-07 07:20:00+00:00,203.5464,15.6,12.65,47.84626,-54.09684
2017-09-07 07:30:00+00:00,207.7647,15.6,12.65,47.84626,-54.09684
2017-09-07 07:40:00+00:00,209.9031,15.6,12.65,47.84626,-54.09684
2017-09-07 07:50:00+00:00,212.9381,15.6,12.65,47.84626,-54.09684
2017-09-07 08:00:00+00:00,217.6098,15.59,12.65,47.84626,-54.09684
2017-09-07 08:10:00+00:00,219.3098,15.59,12.65,47.84626,-54.09684
2017-09-07 08:20:00+00:00,221.7198,15.58,12.65,47.84626,-54.09684
2017-09-07 08:30:00+00:00,227.7881,15.54,12.65,47.84626,-54.09684
2017-09-07 08:40:00+00:00,234.8164,15.5,12.65,47.84626,-54.09684
2017-09-07 08:50:00+00:00,239.4915,15.52,12.65,47.84626,-54.09684
2017-09-07 09:00:00+00:00,244.4998,15.5,12.65,47.84626,-54.09684
2017-09-07 09:10:00+00:00,249.0747,15.5,12.65,47.84626,-54.09684
2017-09-07 09:20:00+00:00,253.3781,15.5,12.65,47.84626,-54.09684
2017-09-07 09:30:00+00:00,256.9915,15.5,12.65,47.84626,-54.09684
2017-09-07 09:40:00+00:00,265.1347,15.5,12.65,47.84626,-54.09684
2017-09-07 09:50:00+00:00,271.2764,15.5,12.65,47.84626,-54.09684
2017-09-07 10:00:00+00:00,276.8947,15.5,12.65,47.84626,-54.09684
2017-09-07 10:10:00+00:00,284.3697,15.5,12.65,47.84626,-54.09684
2017-09-07 10:20:00+00:00,295.0231,15.5,12.65,47.84626,-54.09684
2017-09-07 10:30:00+00:00,304.0364,15.5,12.65,47.84626,-54.09684
2017-09-07 10:40:00+00:00,311.868,15.5,12.65,47.84626,-54.09684
2017-09-07 10:50:00+00:00,323.8413,15.5,12.73,47.84626,-54.09684
2017-09-07 11:00:00+00:00,331.653,15.5,12.65,47.84626,-54.09684
2017-09-07 11:10:00+00:00,334.9897,15.5,12.65,47.84626,-54.09684
2017-09-07 11:20:00+00:00,342.4647,15.5,12.65,47.84626,-54.09684
2017-09-07 11:30:00+00:00,352.0979,15.4,12.65,47.84626,-54.09684
2017-09-07 11:40:00+00:00,356.093,15.44,12.65,47.84626,-54.09684
2017-09-07 11:50:00+00:00,352.7364,15.5,12.65,47.84626,-54.09684
2017-09-07 12:00:00+00:00,352.7561,15.5,12.65,47.84626,-54.09684
2017-09-07 12:10:00+00:00,354.813,15.36,12.65,47.84626,-54.09684
2017-09-07 12:20:00+00:00,352.8796,15.4,12.65,47.84626,-54.09684
2017-09-07 12:30:00+00:00,350.7178,15.3,12.73,47.84626,-54.09684
2017-09-07 12:40:00+00:00,350.8296,15.3,12.73,47.84626,-54.09684
2017-09-07 12:50:00+00:00,353.2179,15.3,12.73,47.84626,-54.09684
2017-09-07 13:00:00+00:00,350.0963,15.3,12.73,47.84626,-54.09684
2017-09-07 13:10:00+00:00,344.6063,15.4,12.73,47.84626,-54.09684
2017-09-07 13:20:00+00:00,343.5064,15.34,12.81,47.84626,-54.09684
2017-09-07 13:30:00+00:00,343.8279,15.32,12.81,47.84626,-54.09684
2017-09-07 13:40:00+00:00,340.778,15.39,12.81,47.84626,-54.09684
2017-09-07 13:50:00+00:00,334.313,15.35,12.81,47.84626,-54.09684
2017-09-07 14:00:00+00:00,329.2529,15.4,12.81,47.84626,-54.09684
2017-09-07 14:10:00+00:00,323.6497,15.5,12.73,47.84626,-54.09684
2017-09-07 14:20:00+00:00,316.5863,15.55,12.89,47.84626,-54.09684
2017-09-07 14:30:00+00:00,309.923,15.58,12.89,47.84626,-54.09684
2017-09-07 14:40:00+00:00,304.0997,15.6,12.97,47.84626,-54.09684
2017-09-07 14:50:00+00:00,295.1013,15.6,12.97,47.84626,-54.09684
2017-09-07 15:00:00+00:00,281.1348,15.62,12.97,47.84626,-54.09684
2017-09-07 15:10:00+00:00,271.6914,15.68,12.81,47.84626,-54.09684
2017-09-07 15:20:00+00:00,264.1181,15.69,12.97,47.84626,-54.09684
2017-09-07 15:30:00+00:00,251.7331,15.69,12.89,47.84626,-54.09684
2017-09-07 15:40:00+00:00,240.4814,15.7,12.89,47.84626,-54.09684
2017-09-07 15:50:00+00:00,234.0731,15.69,12.89,47.84626,-54.09684
2017-09-07 16:00:00+00:00,227.6081,15.7,12.89,47.84626,-54.09684
2017-09-07 16:10:00+00:00,218.4231,15.7,12.89,47.84626,-54.09684
2017-09-07 16:20:00+00:00,209.2531,15.7,12.97,47.84626,-54.09684
2017-09-07 16:30:00+00:00,200.7898,15.72,12.97,47.84626,-54.09684
2017-09-07 16:40:00+00:00,195.4381,15.77,12.97,47.84626,-54.09684
2017-09-07 16:50:00+00:00,192.2348,15.77,12.97,47.84626,-54.09684
2017-09-07 17:00:00+00:00,184.8465,15.78,12.89,47.84626,-54.09684
2017-09-07 17:10:00+00:00,177.4998,15.79,12.81,47.84626,-54.09684
2017-09-07 17:20:00+00:00,177.2398,15.78,12.89,47.84626,-54.09684
2017-09-07 17:30:00+00:00,172.4665,15.8,12.89,47.84626,-54.09684
2017-09-07 17:40:00+00:00,161.2948,15.84,12.89,47.84626,-54.09684
2017-09-07 17:50:00+00:00,159.7248,15.85,12.97,47.84626,-54.09684
2017-09-07 18:00:00+00:00,162.0099,15.84,12.89,47.84626,-54.09684
2017-09-07 18:10:00+00:00,157.1898,15.86,12.89,47.84626,-54.09684
2017-09-07 18:20:00+00:00,154.9532,15.88,12.97,47.84626,-54.09684
2017-09-07 18:30:00+00:00,158.7615,15.88,12.97,47.84626,-54.09684
2017-09-07 18:40:00+00:00,162.4298,15.88,12.97,47.84626,-54.09684
2017-09-07 18:50:00+00:00,165.1848,15.88,12.97,47.84626,-54.09684
2017-09-07 19:00:00+00:00,169.3165,15.88,12.89,47.84626,-54.09684
2017-09-07 19:10:00+00:00,173.3065,15.89,12.81,47.84626,-54.09684
2017-09-07 19:20:00+00:00,175.8032,15.88,12.81,47.84626,-54.09684
2017-09-07 19:30:00+00:00,180.2914,15.87,12.81,47.84626,-54.09684
2017-09-07 19:40:00+00:00,186.4748,15.88,12.81,47.84626,-54.09684
2017-09-07 19:50:00+00:00,193.6064,15.89,12.81,47.84626,-54.09684
2017-09-07 20:00:00+00:00,200.6798,15.89,12.73,47.84626,-54.09684
2017-09-07 20:10:00+00:00,206.2097,15.9,12.73,47.84626,-54.09684
2017-09-07 20:20:00+00:00,212.4164,15.9,12.81,47.84626,-54.09684
2017-09-07 20:30:00+00:00,218.5731,15.9,12.81,47.84626,-54.09684
2017-09-07 20:40:00+00:00,225.2264,15.9,12.81,47.84626,-54.09684
2017-09-07 20:50:00+00:00,230.3431,15.9,12.73,47.84626,-54.09684
2017-09-07 21:00:00+00:00,237.4981,15.89,12.73,47.84626,-54.09684
2017-09-07 21:10:00+00:00,245.1797,15.89,12.65,47.84626,-54.09684
2017-09-07 21:20:00+00:00,251.4864,15.89,12.73,47.84626,-54.09684
2017-09-07 21:30:00+00:00,257.3181,15.87,12.73,47.84626,-54.09684
2017-09-07 21:40:00+00:00,262.8331,15.88,12.73,47.84626,-54.09684
2017-09-07 21:50:00+00:00,269.7564,15.88,12.73,47.84626,-54.09684
2017-09-07 22:00:00+00:00,276.7381,15.9,12.65,47.84626,-54.09684
2017-09-07 22:10:00+00:00,284.783,15.89,12.65,47.84626,-54.09684
2017-09-07 22:20:00+00:00,293.9464,15.88,12.73,47.84626,-54.09684
2017-09-07 22:30:00+00:00,303.833,15.89,12.65,47.84626,-54.09684
2017-09-07 22:40:00+00:00,317.0997,15.89,12.73,47.84626,-54.09684
2017-09-07 22:50:00+00:00,327.1146,15.9,12.73,47.84626,-54.09684
2017-09-07 23:00:00+00:00,333.283,15.9,12.65,47.84626,-54.09684
2017-09-07 23:10:00+00:00,340.8179,15.9,12.65,47.84626,-54.09684
2017-09-07 23:20:00+00:00,351.2079,15.9,12.65,47.84626,-54.09684
2017-09-07 23:30:00+00:00,358.2746,15.9,12.65,47.84626,-54.09684
2017-09-07 23:40:00+00:00,358.3112,15.9,12.65,47.84626,-54.09684
2017-09-07 23:50:00+00:00,360.7146,15.9,12.65,47.84626,-54.09684
